Location: Campbell River
(50.0170°N, 125.2500°W)
Time: 13:50:16
(UTC-08:00)

Daily predictions for brighter satellites

Satellite Brightness Start Highest point End
(mag) Time Altitude Azimuth Time Altitude Azimuth Time Altitude Azimuth
Cosmos 2344 4.1 16:39:32 10° WSW 16:47:18 66° NW 16:56:52 10° NE
Cosmos 990 Rocket 4.0 16:49:24 10° SSW 16:54:34 89° ESE 16:59:45 10° NNE
Cosmos 1782 3.2 16:55:18 10° SSW 16:59:19 69° WNW 17:03:21 10° N
CZ-3A R/B 4.5 16:34:06 10° SW 17:01:13 74° SSE 17:07:05 10° ENE
Cosmos 1300 Rocket 3.7 16:59:42 10° NNW 17:04:05 80° W 17:08:24 10° S
MOS 1 4.4 17:00:49 10° SE 17:06:18 54° ENE 17:11:48 10° N
CORIOLIS 4.5 17:02:27 10° SE 17:07:33 45° ENE 17:12:40 10° N
SMAP 3.3 17:05:17 10° SE 17:09:42 46° ENE 17:14:10 10° N
Cosmos 1818 4.3 17:04:30 10° WSW 17:09:47 48° NW 17:15:07 10° NE
PAYLOAD A 3.9 17:05:03 10° SSE 17:09:49 69° ENE 17:14:49 10° N
YAOGAN 1 3.0 17:05:47 10° SE 17:09:51 41° ENE 17:13:56 10° N
SPOT 3 Rocket 3.7 17:05:04 10° SE 17:10:06 52° ENE 17:15:08 10° N
MOZ.5/SAFIR/RUBIN 5/SL-8 4.3 17:06:45 10° N 17:11:21 62° WNW 17:15:58 10° SSW
COSMOS 2406 3.2 17:06:57 10° NNW 17:12:42 82° ENE 17:18:27 10° SSE
Abrixas 2.9 17:09:53 10° WSW 17:12:48 56° S 17:15:43 10° E
Cosmos 2278 Rocket 3.9 17:13:27 10° SE 17:16:09 14° E 17:18:28 11° ENE
SL-8 Rocket 4.1 17:10:27 10° N 17:16:28 50° ENE 17:22:25 10° SSE
Cosmos 1602 4.2 17:15:28 10° NNW 17:19:23 65° W 17:23:15 10° S
Cosmos 1378 Rocket 3.5 17:15:22 10° S 17:19:38 66° E 17:23:55 10° NNE
Genesis I 4.3 17:19:47 10° NNW 17:23:08 25° NE 17:25:59 12° E
Meteor 1-5 Rocket 4.1 17:18:04 10° N 17:23:26 66° ENE 17:28:54 10° SSE
Cosmos 1484 Rocket 3.7 17:22:03 10° ESE 17:25:07 24° ENE 17:28:11 10° N
IDEFIX/ARIANE 42P 2.5 17:21:23 10° SSE 17:26:31 65° ENE 17:31:40 10° N
Cosmos 2366 rocket 4.3 17:20:25 10° N 17:26:32 46° ENE 17:32:34 10° SE
Cosmos 1455 Rocket 3.7 17:22:50 10° N 17:26:51 34° ENE 17:30:53 10° SE
Cosmos 2218 Rocket 4.1 17:22:21 10° N 17:28:33 52° ENE 17:34:37 10° SSE
Meteor 2-19 Rocket 4.5 17:23:55 10° N 17:29:54 56° ENE 17:35:50 10° SSE
Cosmos 372 Rocket 4.2 17:25:49 10° S 17:30:53 52° ESE 17:36:01 10° NNE
APEX 4.3 17:25:59 10° SSW 17:32:27 67° ESE 17:37:21 11° NE
EO 1 Del DPAF 4.5 17:29:22 10° N 17:33:04 42° WNW 17:36:44 10° SW
Cosmos 2181 Rocket 4.1 17:27:51 10° S 17:34:08 67° E 17:40:32 10° NNE
Cosmos 2297 Rocket 4.4 17:32:50 10° NW 17:35:18 13° NNW 17:37:47 10° N
Cosmos 2082 Rocket 3.1 17:30:44 10° NNW 17:35:30 27° NE 17:39:41 12° E
USA 234 3.3 17:32:50 13° ENE 17:38:43 72° SE 17:45:15 10° SW
Cosmos 1833 Rocket 3.7 17:36:37 10° NNW 17:41:20 26° NE 17:44:32 16° E
ATLAS CENTAUR R/B 3.5 17:38:08 10° WNW 17:41:41 21° NNW 17:45:05 10° NNE
NOSS 3-4 (A) 4.4 17:36:32 10° NW 17:42:37 34° NNE 17:47:19 17° ENE
NOSS 3-4 (C) 4.4 17:36:38 10° NW 17:42:44 34° NNE 17:47:23 17° ENE
Thor Agena Rocket 3.6 17:38:39 10° NNE 17:43:47 61° ESE 17:48:58 10° S
Cosmos 494 Rocket 4.0 17:38:44 10° NNW 17:43:54 58° ENE 17:49:05 10° SE
Cosmos 1500 4.2 17:40:48 10° NNE 17:43:59 25° ENE 17:47:11 10° SE
Cosmos 1536 3.6 17:40:59 10° NNW 17:44:59 56° W 17:48:58 10° S
Cosmos 1125 Rocket 3.6 17:40:01 10° SSW 17:45:21 87° WNW 17:50:43 10° NNE
BREEZE M DEB (TANK) 2.4 17:42:42 10° W 17:45:23 85° S 17:50:35 15° E
ERBS 3.7 17:43:36 10° WNW 17:46:36 28° NNW 17:48:16 19° NNE
Okean 1 4.4 17:46:05 10° SE 17:49:24 24° E 17:50:17 23° ENE
ISS -1.9 17:50:40 10° SSW 17:53:27 26° SE 17:54:30 22° ESE
Cosmos 2251 Rocket 3.5 17:52:36 10° NNW 17:58:01 83° ENE 18:03:22 10° SSE
ATLAS 2AS CENTAUR R/B 3.2 17:50:38 10° NW 17:58:50 82° SW 18:06:32 10° SE
SL-27 R/B 2.7 17:56:31 10° NNW 18:00:13 75° WSW 18:03:52 10° SSE
SL-08 R/B 4.5 17:54:36 10° N 18:01:05 80° E 18:07:24 10° SSE
Cosmos 2263 Rocket 3.3 17:59:41 10° WSW 18:04:56 39° NW 18:10:16 10° NNE
Meteor 1-18 Rocket 4.3 18:00:34 10° S 18:06:02 54° E 18:11:38 10° NNE
Cosmos 1812 2.8 18:05:18 10° S 18:09:02 51° E 18:10:49 27° NNE
Cosmos 1346 Rocket 4.4 18:06:51 10° SE 18:08:21 18° SE 18:08:21 18° SE
COSMO-SKYMED 1 2.8 18:12:00 27° NE 18:13:58 45° E 18:18:08 10° S
Cosmos 1544 Rocket 3.9 18:10:39 10° NNW 18:15:06 68° W 18:19:31 10° S
CZ-4 R/B 3.3 18:11:22 10° SSW 18:15:11 33° W 18:18:58 10° NNW
CZ-3B DEB 2.9 18:15:14 10° SSW 18:19:27 49° SE 18:24:12 26° ENE
MSX 4.1 18:15:22 10° S 18:21:06 69° WSW 18:26:52 10° NNW
Meteor 2-21 4.4 18:16:34 10° N 18:22:45 64° ENE 18:28:51 10° SSE
Cosmos 1975 Rocket 4.0 18:18:44 10° SSW 18:22:54 46° WNW 18:27:05 10° N
Cosmos 1975 2.7 18:22:12 10° N 18:26:19 86° E 18:30:23 10° S
Nadezhda 3 Rocket 4.2 18:22:20 10° SSE 18:28:12 47° E 18:34:10 10° NNE
CZ-2C R/B 4.0 18:23:53 10° SSW 18:28:31 38° W 18:33:19 10° NNW
GEOS 3 Rocket 4.0 18:25:05 10° SSE 18:30:09 61° SW 18:35:14 10° NW
Cosmos 1844 Rocket 2.6 18:25:19 10° SSW 18:30:55 86° WNW 18:34:31 24° NNE
Cosmos 1238 Rocket 2.3 18:29:07 10° SSW 18:32:03 68° W 18:32:13 66° NW
BREEZE-M DEB (TANK) 3.3 18:32:08 10° W 18:39:18 88° S 18:39:47 66° E
Cosmos 1536 Rocket 3.5 18:34:50 10° S 18:39:19 89° E 18:41:47 27° N
Cosmos 1844 3.6 18:36:03 10° SSW 18:41:37 88° ESE 18:44:15 33° NNE
SL-24 DEB 4.4 18:37:13 10° N 18:42:00 74° W 18:46:42 10° SSW
COSMOS 2487 3.3 18:40:13 10° NNW 18:42:43 42° NNW 18:42:43 42° NNW
SKYMED 3 4.5 18:42:23 37° NNE 18:44:05 89° ESE 18:48:25 10° SSW
Meteor 2-14 Rocket 4.3 18:40:28 10° N 18:46:39 72° ENE 18:52:47 10° SSE
Abrixas 4.0 18:45:21 10° W 18:47:19 35° WSW 18:47:19 35° WSW
FengYun 1-2 T 4.2 18:56:47 57° E 18:57:12 59° ENE 19:02:47 10° N
Resurs 01 Rocket 3.7 19:01:29 16° N 19:01:29 16° N 19:02:24 10° N
Cosmos 2278 Rocket 2.0 18:53:38 10° SSW 18:59:16 78° ESE 19:00:22 58° NE
Genesis I 3.7 18:57:14 10° NW 19:01:03 58° WSW 19:01:03 58° WSW
SKYMED 2 4.0 19:00:38 38° N 19:02:07 62° WNW 19:06:23 10° SSW
Meteor 2-21 Rocket 4.5 18:56:23 10° NNW 19:02:37 83° W 19:08:47 10° S
Spot 2 Rocket 3.9 19:05:04 49° NNE 19:05:04 49° NNE 19:08:57 10° N
Meteor 2-16 Rocket 4.3 19:02:08 10° N 19:08:17 89° WSW 19:14:21 10° S
Meteor 1-13 Rocket 4.1 19:04:51 10° S 19:10:30 78° E 19:11:11 68° NE
Cosmos 2082 Rocket 2.3 19:14:30 10° NNW 19:20:09 72° WSW 19:21:37 50° S
Cosmos 1535 Rocket 4.5 19:14:39 10° N 19:21:03 84° W 19:27:19 10° S
USA 234 3.5 19:20:11 48° NNE 19:21:40 59° NNW 19:28:05 10° W
ATLAS CENTAUR R/B 4.1 19:20:38 10° NNW 19:21:34 11° NNW 19:21:34 11° NNW
Timation 2 Rocket 4.5 19:18:04 10° NW 19:24:47 65° WSW 19:30:02 18° S
Cosmos 1934 Rocket 3.8 19:19:39 10° N 19:25:51 86° E 19:26:27 74° SSE
Cosmos 1833 Rocket 2.7 19:20:13 10° NNW 19:25:53 76° WSW 19:26:18 71° SSW
BREEZE-M R/B 4.1 19:19:04 10° SW 19:26:15 51° S 19:26:15 51° S
ISS -0.3 19:26:23 10° WSW 19:27:10 16° WSW 19:27:10 16° WSW
NOSS 3-4 (A) 3.6 19:27:33 10° NW 19:34:29 83° NE 19:34:48 80° E
NOSS 3-4 (C) 3.6 19:27:40 10° NW 19:34:36 82° NE 19:34:52 80° E
NOSS 3-3 (A) 4.0 19:38:37 10° SW 19:44:39 79° W 19:44:39 79° W
NOSS 3-3 (C) 4.0 19:38:43 10° SW 19:44:43 79° W 19:44:43 79° W
Cosmos 1821 Rocket 4.4 19:41:35 10° NNW 19:47:32 56° W 19:53:28 10° S
Cosmos 2278 Rocket 4.3 20:39:20 10° W 20:42:15 22° WNW 20:42:15 22° WNW
CZ-3B DEB 3.8 20:48:00 10° W 20:53:06 60° WNW 20:53:06 60° WNW
